Temperature
17 17 17 18 18 18 19 22 24 25 25 25 25 25 25 26 24 21 21 21 21 22 22 21 20 18 18 17 17 16 16 16 16 16 15 15 15 15 15 15 15 15 14 14 14 14 14 15 15
17 16 17 18 18 18 20 22 23 24 24 24 24 24 24 25 23 21 21 20 20 21 22 21 20 18 17 17 16 16 16 16 16 15 15 15 15 15 15 15 15 15 14 14 14 14 15 15 15
16 16 17 18 18 19 21 23 24 25 24 23 24 25 25 24 23 21 20 20 19 20 21 21 19 18 17 17 16 16 16 16 16 15 15 16 15 15 15 15 15 15 14 14 14 14 15 15 15
15 16 17 18 18 20 21 23 24 24 24 23 24 25 24 22 21 20 20 19 18 18 19 20 19 17 17 16 16 16 16 16 16 16 16 16 16 15 15 15 15 14 14 14 14 14 14 15 15
14 15 16 17 18 20 22 23 24 24 24 24 24 24 22 21 21 20 19 19 18 17 18 19 18 17 16 16 16 16 16 16 16 16 16 16 16 16 15 15 14 14 14 14 14 14 14 14 14
14 15 15 16 18 20 22 23 24 23 24 24 24 24 21 20 20 19 19 19 18 17 18 18 17 16 16 16 16 16 16 16 17 17 17 17 16 16 16 15 15 14 14 14 14 14 14 14 14
14 15 15 17 18 20 22 23 23 23 23 24 24 24 21 19 19 19 19 19 18 17 17 18 17 16 16 16 16 16 16 16 17 17 17 17 17 16 16 15 15 15 14 15 14 14 15 14 14
14 15 16 17 18 20 22 23 23 23 23 23 23 23 20 19 19 19 19 19 18 17 17 17 16 16 16 16 16 16 16 16 16 17 17 17 17 16 16 15 15 15 15 15 15 15 15 15 14
14 14 15 17 18 20 22 22 23 22 22 23 23 21 19 19 19 18 18 18 18 17 16 16 16 16 16 16 16 16 16 16 17 17 17 17 17 16 16 16 16 15 15 15 15 15 15 15 14
14 13 15 18 19 20 21 22 22 22 21 22 22 21 20 19 18 18 18 18 17 17 16 16 16 15 15 15 16 16 16 17 17 17 17 17 17 16 16 16 16 16 16 15 15 15 15 15 15
14 14 17 18 19 19 20 21 21 21 20 21 22 21 20 18 17 17 17 17 16 16 16 16 16 15 15 15 15 16 16 16 17 17 17 16 15 15 16 16 16 16 16 16 15 15 15 15 14
15 16 17 18 17 18 18 19 20 20 21 21 21 21 20 19 18 17 17 16 16 16 16 16 15 15 15 15 15 15 15 16 16 16 16 16 15 15 15 16 16 16 16 16 16 15 15 15 14
14 15 17 17 17 17 17 18 19 20 20 19 19 20 19 19 18 18 17 17 16 16 15 15 15 15 15 15 15 15 15 15 15 15 15 15 15 15 15 15 15 16 16 16 15 15 14 14 14
14 15 16 16 16 16 17 17 18 19 19 19 19 19 19 19 18 18 17 17 16 16 15 15 15 15 15 15 15 15 15 15 15 15 15 15 15 15 15 15 14 15 15 14 15 15 14 13 13
15 14 15 15 15 16 16 15 16 18 18 18 19 19 19 18 18 18 17 17 17 16 16 15 15 15 15 15 15 15 15 15 15 15 15 15 15 15 15 15 14 14 14 14 14 14 13 13 13
13 13 12 14 15 15 15 14 16 17 17 18 18 19 19 18 18 18 18 17 17 16 16 15 15 15 15 15 15 15 15 15 15 15 15 15 15 15 15 15 14 14 14 14 13 13 13 13 13
12 11 12 14 15 15 14 14 17 18 18 18 18 18 19 19 18 18 18 17 17 16 16 16 16 15 15 15 15 15 15 15 15 15 15 15 15 15 15 14 14 14 13 13 13 13 13 13 13
11 12 13 13 15 15 14 14 16 17 17 17 18 18 18 18 18 18 18 17 17 17 16 16 16 16 16 15 15 15 16 16 16 16 15 15 15 15 14 14 14 14 13 13 13 13 12 12 12
13 13 13 14 15 14 14 14 15 16 16 17 17 18 18 18 18 17 17 17 16 16 16 16 16 16 16 15 15 15 16 16 16 16 16 16 15 15 14 14 14 13 13 13 12 12 12 12 12
13 13 14 14 15 14 14 14 15 16 16 16 17 17 17 17 17 17 16 16 16 16 16 16 16 16 16 15 15 15 15 16 16 16 16 16 16 15 14 14 14 13 13 12 12 12 12 12 11
12 12 13 13 13 14 14 13 14 15 16 16 15 16 16 16 16 15 15 15 15 15 15 15 15 15 16 16 15 15 15 15 15 15 15 16 15 15 14 14 13 13 13 12 12 12 12 12 11
11 13 14 13 12 11 12 11 13 14 14 14 15 15 15 15 14 14 13 13 13 14 14 14 15 15 15 15 15 15 15 14 15 15 14 14 14 14 14 14 13 13 12 12 12 12 12 11 11
11 12 13 12 12 12 12 11 13 14 13 13 13 14 14 13 13 13 12 12 12 12 13 13 14 14 14 14 14 14 14 14 14 14 14 14 14 13 13 13 13 12 12 12 12 12 11 11 11
11 11 11 11 11 10 12 11 13 13 13 13 13 13 13 12 12 11 11 11 11 12 12 12 12 13 13 13 13 13 13 13 13 13 13 13 13 13 13 13 12 12 12 12 11 11 11 11 11
10 9 9 9 9 9 13 12 13 14 14 13 12 12 12 11 11 11 10 10 10 11 11 12 12 12 12 12 12 12 12 12 12 12 12 12 12 12 12 12 12 12 12 11 11 11 11 11 11
9 9 9 9 9 11 12 12 13 13 13 13 13 12 12 11 11 10 10 10 9 10 10 10 11 11 11 11 12 12 11 11 11 11 11 11 11 12 12 11 11 11 11 11 11 11 11 11 10
9 9 10 9 11 11 10 12 11 12 12 12 12 12 11 11 10 10 9 9 9 9 9 10 10 10 10 10 10 10 10 10 10 11 11 11 11 11 11 11 11 11 10 10 10 10 10 10 10
10 10 9 8 9 11 12 12 10 10 10 11 11 12 11 11 10 9 9 8 8 8 9 9 9 9 9 9 9 9 9 10 10 9 10 10 10 10 10 10 10 10 10 9 9 9 9 9 9
9 9 9 9 10 9 11 11 13 11 11 11 11 12 11 10 10 9 8 8 8 8 8 8 8 8 8 8 8 8 8 8 8 8 9 9 9 9 9 9 9 9 9 8 8 8 8 8 8
9 9 9 8 9 10 9 10 13 11 11 12 12 11 11 10 9 8 8 7 7 7 7 7 7 7 7 7 7 7 7 7 7 7 7 7 8 8 8 8 8 7 7 7 7 7 7 7 7
Wind_Speed
9 12 8 4 4 6 10 10 7 1 2 5 7 6 8 6 4 6 5 9 18 18 21 21 21 20 19 18 17 16 16 15 14 13 12 10 9 8 8 8 8 9 11 12 15 15 15 14 14
9 8 6 4 6 8 9 10 7 3 5 6 2 4 6 2 8 8 5 12 17 17 20 20 21 20 20 19 18 16 15 14 13 12 11 9 8 8 7 8 10 11 12 14 15 15 14 13 13
7 7 4 4 8 11 10 7 6 5 7 3 4 7 5 3 8 6 8 12 16 15 18 21 21 20 20 19 18 16 15 14 13 12 10 9 8 8 9 10 11 12 13 14 15 15 14 13 12
3 2 4 8 13 14 13 7 2 4 5 4 5 4 4 7 5 8 10 12 15 14 18 21 20 20 20 19 18 16 15 14 13 12 10 9 9 10 11 11 12 13 13 14 14 14 12 12 11
3 3 7 12 16 14 12 9 2 3 5 7 6 3 6 5 9 10 9 11 13 15 19 20 20 20 20 19 18 16 15 14 13 11 10 10 10 11 12 12 12 13 13 14 13 12 11 10 9
4 4 9 15 17 15 13 9 6 6 5 5 5 5 5 7 9 9 9 10 12 15 17 18 19 20 20 19 18 16 15 14 12 11 10 10 11 11 11 12 12 12 13 13 12 11 10 9 8
7 8 14 17 16 16 15 10 8 7 7 5 3 3 7 9 9 9 8 9 13 14 14 15 16 18 20 19 18 17 16 14 12 11 11 11 11 11 11 11 11 12 12 12 12 11 9 8 7
7 5 14 17 17 15 13 11 9 7 6 4 1 1 6 8 7 8 7 9 12 13 13 11 14 15 15 16 17 17 16 15 13 12 12 13 12 11 10 10 11 12 12 12 11 10 9 7 6
7 8 14 16 15 13 9 8 7 4 5 5 1 6 10 9 8 7 5 6 9 11 11 11 11 13 15 15 15 16 16 15 14 13 14 14 12 11 10 11 12 12 12 11 10 9 9 8 7
6 11 17 12 10 10 7 5 6 6 7 8 4 8 12 10 8 8 6 5 6 7 9 10 10 9 12 13 15 14 13 14 13 13 14 12 13 13 12 15 13 12 11 11 10 9 9 8 8
8 10 11 11 5 5 2 3 3 6 7 8 7 9 11 11 9 9 8 7 5 5 5 6 8 8 8 8 12 10 11 13 13 15 16 14 11 12 13 12 12 11 11 10 10 10 10 11 11
10 12 12 8 1 2 2 1 4 7 4 2 3 4 9 10 9 9 10 11 9 8 6 4 4 5 6 8 7 8 8 9 10 13 17 13 7 8 10 10 12 12 12 11 12 10 12 12 10
16 11 9 4 1 1 2 4 5 6 1 6 6 5 3 6 8 8 7 8 10 10 9 7 5 5 5 5 4 6 6 8 10 11 14 13 7 5 7 8 12 13 13 12 10 10 9 8 8
12 12 8 4 3 2 3 5 5 6 2 3 3 2 2 4 5 6 7 7 8 9 9 9 8 6 5 4 4 4 5 8 9 10 11 13 10 8 6 5 7 10 12 12 11 9 6 5 5
9 9 8 7 6 4 3 8 11 9 5 5 6 7 6 5 5 5 7 6 7 8 9 10 10 8 7 6 5 4 5 7 6 9 13 14 13 11 8 4 4 8 11 10 10 9 6 4 4
9 8 9 10 10 8 7 12 12 11 11 10 8 8 8 7 6 5 5 6 6 6 8 9 10 10 9 7 5 4 5 6 6 9 12 14 15 13 9 4 5 10 11 8 4 4 4 4 4
8 11 13 11 15 10 10 9 8 10 12 11 10 10 8 7 8 7 6 5 5 5 7 8 9 10 10 9 6 5 5 5 6 8 9 12 15 15 10 6 6 10 7 5 5 5 5 5 5
15 14 15 13 14 14 13 10 7 4 7 9 10 10 9 7 6 4 4 3 3 3 3 5 7 9 9 8 7 5 6 5 5 6 7 10 12 14 12 7 8 9 5 6 6 6 6 5 6
12 14 14 13 11 13 13 13 11 8 7 8 9 9 8 7 5 3 3 2 2 1 1 2 3 5 6 6 6 6 7 7 6 6 9 10 11 12 11 6 7 7 7 8 8 6 7 6 5
9 10 11 7 8 10 10 13 11 9 9 7 7 7 5 3 2 2 3 3 2 1 1 2 2 2 2 3 5 5 5 6 7 6 8 12 12 11 9 8 8 8 7 8 9 8 6 6 6
10 9 8 7 6 5 6 9 12 8 7 6 6 5 3 1 1 2 3 3 3 3 3 3 3 2 2 2 1 2 3 3 4 6 7 9 12 12 11 9 7 8 9 8 9 9 10 8 7
9 6 5 8 7 6 8 5 11 13 10 10 9 7 5 3 3 4 4 4 4 3 4 4 4 4 3 2 1 2 3 4 5 5 5 7 10 11 13 11 9 9 8 9 9 10 9 8 7
3 1 2 5 6 4 8 6 5 11 11 11 9 7 6 5 5 5 5 5 5 4 3 4 4 4 4 4 3 2 3 4 3 3 5 6 7 8 10 11 9 10 9 10 10 10 10 10 9
4 3 3 1 3 5 9 8 5 8 12 11 9 8 7 6 6 6 5 4 4 4 3 3 3 3 4 4 4 3 4 4 4 5 5 5 4 5 7 8 9 10 10 10 11 10 11 11 10
6 6 5 4 4 6 8 7 4 6 11 12 11 9 8 7 6 5 5 4 5 5 3 3 3 4 4 4 4 4 4 4 4 5 5 5 4 3 4 5 7 8 9 10 10 10 11 11 10
8 5 2 4 6 4 3 6 2 8 10 11 10 9 7 7 6 6 6 5 4 5 4 4 4 4 5 5 5 5 5 3 3 4 4 4 3 3 3 3 4 5 6 7 8 8 9 8 9
6 5 1 2 3 3 6 4 5 7 9 9 9 9 8 7 7 6 6 5 5 5 5 5 5 5 6 6 6 6 6 5 5 5 5 4 4 4 4 3 3 3 3 3 4 5 5 5 5
0 2 2 2 2 3 7 8 9 13 11 10 10 9 8 7 7 7 6 5 5 5 4 5 6 6 6 6 6 6 6 6 6 5 6 6 6 5 5 4 4 3 3 2 1 1 1 2 1
4 2 2 3 3 2 2 1 1 15 12 10 9 8 8 7 6 6 5 5 4 4 5 6 6 6 6 6 6 7 6 7 7 6 7 6 6 7 6 6 6 6 6 5 4 3 3 3 4
3 5 5 3 3 3 2 1 2 10 10 9 8 8 7 7 6 5 5 4 4 5 5 6 6 6 6 6 6 7 7 7 7 8 8 7 7 7 8 8 8 8 8 8 7 6 6 6 6
Wind_Direction
281 271 267 261 252 233 239 246 260 68 50 38 21 339 326 326 24 96 195 123 121 131 141 146 143 144 142 138 134 131 130 128 125 122 117 111 108 107 104 105 112 110 107 107 105 98 94 90 88
282 268 265 249 237 234 234 232 238 172 83 58 14 281 288 315 89 109 127 114 126 132 143 146 143 144 143 138 136 134 131 128 124 121 116 113 112 109 107 109 116 111 108 109 107 101 97 93 90
274 266 252 235 233 238 242 225 203 150 106 136 221 217 236 27 75 101 117 127 128 133 144 140 142 144 141 139 137 135 132 128 124 120 117 116 113 109 109 111 114 112 109 111 110 106 101 96 94
238 236 253 244 236 233 252 272 50 129 139 180 255 220 107 49 48 96 124 135 131 135 133 139 141 143 141 140 139 137 134 130 126 123 120 119 116 111 108 111 115 115 113 115 115 110 105 101 98
220 211 230 240 243 241 241 245 198 183 181 178 225 249 89 75 84 107 142 140 135 131 129 142 140 143 143 142 141 140 137 133 130 128 125 124 121 114 111 112 117 121 120 120 119 115 110 105 101
185 204 220 229 238 241 246 241 208 208 207 181 203 245 100 112 110 132 142 141 130 123 128 140 142 144 145 145 144 142 140 138 137 135 129 124 121 118 118 116 120 125 125 125 124 120 116 110 107
204 206 225 228 232 236 236 236 216 209 231 208 201 250 114 108 116 135 144 141 121 122 128 138 145 146 148 147 146 145 144 143 142 139 132 126 123 122 123 122 125 130 130 128 128 126 124 120 116
219 221 231 234 236 234 229 225 218 209 230 248 227 306 113 117 128 126 139 126 121 125 134 144 149 150 149 149 150 150 149 148 146 140 133 130 129 130 132 131 131 134 134 133 134 134 133 131 131
234 229 227 225 235 244 236 217 202 185 261 264 173 83 101 115 113 108 103 101 120 132 139 147 152 156 157 157 154 151 153 154 150 146 146 147 152 152 153 141 135 138 140 143 145 145 145 147 151
213 225 226 230 239 252 244 218 183 172 226 249 202 118 120 128 131 130 128 121 121 132 140 152 156 158 161 157 154 161 163 162 168 164 165 180 183 169 158 145 145 149 151 154 157 158 164 173 176
207 231 233 244 294 333 277 200 205 200 216 229 205 158 141 143 154 158 161 160 160 153 143 152 156 156 156 146 160 171 172 171 190 179 178 200 188 149 140 147 151 157 163 169 167 174 197 210 194
218 230 238 245 315 359 331 253 241 236 234 44 63 107 140 155 168 174 173 168 171 174 171 164 160 157 159 156 169 171 173 172 188 188 181 195 175 157 161 165 172 178 187 189 178 197 215 217 194
225 232 231 229 192 230 271 269 269 254 224 68 50 36 133 167 171 175 176 166 169 176 174 176 180 180 177 168 173 179 178 176 185 188 186 187 170 170 180 182 177 184 190 189 189 207 208 199 198
217 227 228 209 203 225 239 256 256 254 230 149 156 214 221 200 182 171 173 176 172 174 174 176 187 196 192 190 178 186 188 180 184 180 192 193 184 185 186 188 181 187 192 184 191 208 202 187 192
213 213 215 211 203 211 233 250 241 246 256 232 215 214 215 213 190 187 178 182 179 179 178 180 187 192 197 206 196 197 201 191 192 186 195 200 198 193 190 187 183 191 196 191 190 206 202 183 181
199 202 207 205 202 203 208 238 233 225 233 239 237 229 211 205 198 201 194 184 183 180 184 185 189 191 196 200 198 202 215 210 201 197 196 202 205 199 193 190 196 195 195 194 185 195 188 182 176
188 201 203 200 197 193 204 241 237 206 213 227 235 239 232 209 199 196 197 182 188 191 192 190 186 189 194 194 192 200 214 224 219 211 204 204 207 206 198 196 203 201 196 191 189 189 182 182 186
188 198 202 204 188 195 207 227 239 196 208 228 234 234 230 223 207 188 177 176 176 191 207 198 193 192 192 191 193 194 205 219 226 228 223 215 210 208 205 201 207 205 198 198 192 190 191 186 182
200 203 205 205 181 191 212 225 228 205 204 226 237 239 227 216 199 159 133 108 113 144 245 246 222 205 193 190 192 195 205 211 217 224 232 232 227 217 209 203 204 207 207 201 195 188 196 201 172
239 221 211 181 164 182 214 227 227 216 208 215 238 249 239 218 178 136 114 91 65 50 275 269 259 245 228 202 199 200 203 209 212 213 223 228 232 233 225 212 209 209 213 208 202 195 190 196 179
229 228 207 159 151 200 230 234 222 210 208 211 230 249 271 258 162 125 107 93 70 44 16 351 336 319 287 271 238 227 206 208 210 215 217 219 223 227 229 226 220 215 214 218 213 203 196 201 199
211 228 200 161 157 203 204 235 212 196 198 206 207 205 202 170 123 97 86 84 82 55 23 358 341 335 333 328 287 251 232 227 226 224 222 218 216 221 223 223 221 222 221 221 219 214 208 196 203
189 187 168 170 203 232 194 233 227 170 186 194 188 176 158 137 118 101 85 78 81 69 38 3 350 348 347 344 329 287 269 260 265 263 253 242 229 222 221 220 219 223 225 225 222 219 216 210 205
137 118 99 147 223 243 209 212 223 185 185 172 158 145 136 126 120 116 112 104 91 77 50 11 359 3 4 353 340 320 295 289 291 286 278 269 257 240 229 224 222 223 224 225 224 223 221 218 214
168 152 147 170 199 233 200 202 251 166 153 148 144 140 137 139 135 127 115 97 88 75 50 18 22 18 10 1 350 340 326 313 296 288 281 283 280 273 254 237 229 226 226 225 224 225 227 223 219
189 201 181 182 189 186 170 205 126 107 115 120 125 128 138 138 124 118 107 95 85 71 50 35 31 25 18 10 357 351 348 339 324 318 313 306 300 296 296 277 258 243 233 229 226 227 228 225 223
170 212 347 321 273 166 197 174 97 118 125 135 143 151 155 140 132 123 108 91 75 61 46 35 31 31 24 13 5 5 2 358 347 341 341 337 334 330 331 323 303 291 270 241 225 228 229 225 227
102 144 150 183 234 236 189 184 182 174 170 167 163 162 149 139 133 121 109 95 77 64 50 41 37 34 27 19 14 16 9 4 359 2 3 1 2 4 2 2 8 11 15 15 33 202 192 175 172
158 162 200 239 282 279 218 160 95 169 169 168 159 143 136 131 120 111 104 99 91 74 58 49 42 36 29 21 21 24 18 13 16 23 20 17 21 21 22 27 35 39 42 42 53 60 73 94 90
235 201 187 196 247 234 270 10 33 141 143 143 133 128 126 120 114 112 110 103 91 75 62 52 46 38 30 26 33 33 27 27 30 28 25 27 33 35 39 45 50 49 48 49 57 66 69 81 88
Height
1515 1517 1518 1520 1520 1519 1515 1503 1493 1492 1494 1496 1498 1499 1499 1499 1503 1514 1513 1513 1512 1513 1517 1521 1524 1527 1530 1533 1535 1538 1540 1542 1543 1544 1545 1546 1546 1546 1547 1547 1548 1550 1551 1552 1553 1554 1554 1554 1554
1514 1517 1520 1519 1519 1521 1511 1499 1495 1494 1496 1500 1502 1503 1501 1501 1504 1508 1511 1512 1512 1514 1517 1521 1524 1527 1530 1533 1536 1538 1541 1542 1544 1545 1545 1546 1546 1546 1547 1548 1549 1551 1552 1554 1555 1555 1556 1556 1556
1513 1517 1519 1515 1514 1514 1505 1493 1492 1493 1497 1501 1503 1502 1502 1503 1505 1508 1510 1512 1513 1514 1518 1521 1525 1528 1531 1534 1536 1539 1541 1542 1544 1545 1545 1546 1546 1547 1548 1549 1551 1552 1554 1555 1556 1557 1558 1558 1558
1513 1517 1517 1513 1509 1503 1498 1492 1491 1493 1498 1501 1502 1501 1502 1505 1506 1508 1510 1513 1514 1515 1518 1522 1525 1528 1531 1534 1537 1539 1541 1542 1544 1545 1545 1546 1547 1548 1549 1550 1552 1554 1555 1557 1558 1559 1559 1560 1560
1512 1515 1516 1512 1505 1497 1493 1492 1493 1495 1497 1500 1501 1500 1502 1505 1506 1508 1511 1514 1516 1517 1518 1523 1526 1529 1532 1535 1537 1539 1541 1542 1544 1545 1546 1547 1548 1549 1550 1551 1553 1555 1556 1558 1559 1560 1560 1561 1562
1510 1511 1514 1512 1503 1495 1492 1492 1493 1495 1496 1498 1500 1500 1504 1505 1506 1509 1512 1515 1517 1517 1519 1523 1526 1530 1533 1535 1538 1539 1541 1542 1544 1545 1546 1547 1548 1550 1551 1552 1554 1555 1557 1559 1560 1561 1562 1563 1563
1506 1507 1506 1503 1500 1495 1491 1491 1492 1494 1496 1498 1499 1499 1503 1505 1507 1510 1513 1516 1518 1518 1520 1523 1526 1530 1533 1536 1538 1540 1541 1542 1544 1545 1546 1548 1549 1550 1552 1553 1554 1556 1558 1559 1560 1561 1562 1563 1564
1501 1502 1501 1499 1496 1492 1488 1489 1490 1493 1496 1498 1499 1500 1503 1505 1508 1511 1514 1517 1518 1519 1521 1524 1527 1530 1533 1535 1538 1539 1541 1542 1544 1545 1546 1548 1549 1551 1552 1553 1555 1556 1558 1559 1561 1562 1563 1564 1565
1499 1501 1497 1494 1493 1489 1485 1486 1489 1492 1495 1497 1499 1501 1504 1505 1508 1510 1513 1516 1519 1521 1522 1525 1527 1530 1533 1535 1537 1539 1540 1542 1543 1545 1547 1548 1549 1551 1552 1553 1555 1556 1558 1559 1561 1562 1563 1564 1565
1495 1495 1489 1486 1486 1486 1484 1485 1488 1492 1495 1497 1499 1501 1503 1505 1507 1510 1512 1515 1518 1521 1523 1525 1528 1530 1533 1534 1536 1538 1540 1541 1543 1544 1546 1548 1549 1550 1551 1553 1555 1556 1557 1559 1560 1561 1563 1564 1565
1489 1487 1485 1485 1484 1485 1484 1486 1488 1491 1495 1496 1497 1499 1502 1504 1507 1510 1512 1514 1517 1520 1523 1525 1528 1530 1532 1534 1535 1537 1538 1540 1542 1543 1546 1547 1549 1550 1551 1552 1554 1555 1556 1558 1559 1560 1562 1562 1563
1485 1484 1485 1484 1485 1486 1486 1487 1489 1491 1494 1495 1495 1497 1500 1503 1506 1509 1511 1513 1516 1519 1521 1524 1527 1529 1531 1533 1535 1536 1538 1539 1541 1542 1544 1546 1548 1549 1550 1551 1552 1554 1555 1556 1558 1559 1560 1561 1562
1482 1482 1483 1484 1486 1487 1488 1489 1490 1491 1493 1494 1495 1497 1500 1503 1505 1508 1510 1513 1515 1517 1519 1522 1525 1527 1530 1532 1534 1535 1537 1538 1540 1542 1543 1545 1547 1548 1549 1550 1550 1552 1553 1554 1556 1557 1558 1560 1561
1479 1481 1482 1484 1487 1488 1490 1490 1492 1491 1492 1494 1496 1498 1500 1502 1504 1506 1509 1511 1513 1515 1518 1520 1522 1524 1527 1530 1532 1534 1536 1537 1539 1540 1542 1543 1544 1546 1547 1548 1549 1550 1551 1553 1554 1555 1557 1558 1559
1478 1481 1483 1484 1486 1489 1492 1493 1490 1491 1492 1494 1496 1498 1500 1501 1503 1505 1507 1509 1511 1513 1516 1517 1519 1522 1524 1527 1529 1531 1533 1535 1537 1538 1539 1541 1542 1543 1545 1546 1547 1548 1550 1551 1552 1553 1554 1555 1556
1477 1482 1486 1483 1485 1488 1494 1494 1487 1489 1491 1492 1494 1496 1498 1500 1502 1504 1505 1507 1509 1511 1514 1515 1517 1519 1522 1524 1526 1528 1530 1532 1534 1535 1536 1538 1539 1541 1542 1543 1544 1545 1546 1548 1549 1550 1551 1552 1552
1478 1482 1483 1481 1481 1484 1489 1489 1484 1484 1487 1489 1491 1493 1495 1497 1499 1501 1503 1505 1507 1509 1511 1513 1515 1517 1519 1521 1523 1525 1527 1529 1530 1532 1533 1535 1536 1537 1538 1539 1540 1542 1543 1544 1545 1546 1547 1548 1548
1475 1475 1476 1478 1476 1480 1485 1485 1482 1481 1483 1486 1488 1490 1492 1493 1496 1498 1500 1502 1504 1506 1508 1510 1512 1514 1516 1518 1520 1521 1523 1525 1526 1528 1530 1531 1532 1533 1534 1535 1536 1538 1539 1539 1540 1541 1542 1543 1544
1466 1469 1471 1471 1470 1477 1481 1482 1480 1480 1482 1483 1485 1486 1488 1490 1492 1495 1497 1499 1501 1503 1505 1507 1509 1511 1513 1514 1516 1517 1518 1520 1522 1524 1525 1526 1528 1529 1530 1530 1531 1532 1533 1534 1536 1537 1537 1538 1540
1464 1466 1467 1468 1468 1474 1479 1479 1476 1476 1478 1480 1482 1483 1485 1487 1489 1491 1493 1495 1497 1499 1501 1503 1505 1507 1509 1510 1512 1513 1514 1515 1517 1518 1520 1521 1522 1523 1524 1525 1526 1527 1528 1529 1530 1531 1532 1533 1535
1465 1467 1466 1469 1471 1474 1477 1479 1475 1472 1474 1477 1479 1480 1482 1484 1486 1488 1490 1491 1493 1495 1497 1499 1501 1503 1504 1506 1507 1509 1510 1511 1512 1513 1514 1515 1516 1517 1518 1520 1521 1522 1523 1523 1524 1525 1526 1527 1528
1467 1463 1463 1468 1476 1481 1480 1485 1470 1468 1472 1473 1475 1478 1480 1482 1484 1486 1488 1489 1490 1491 1493 1494 1496 1498 1499 1501 1502 1503 1504 1505 1507 1508 1509 1510 1510 1511 1512 1513 1514 1515 1516 1517 1518 1519 1520 1520 1520
1466 1464 1466 1469 1476 1477 1476 1482 1468 1462 1469 1470 1472 1475 1478 1480 1483 1484 1485 1487 1487 1488 1489 1490 1492 1493 1495 1496 1497 1498 1499 1500 1501 1503 1503 1504 1505 1505 1506 1506 1507 1508 1509 1510 1511 1512 1513 1513 1513
1467 1470 1472 1474 1478 1484 1474 1478 1469 1462 1462 1466 1470 1473 1476 1479 1481 1483 1484 1485 1485 1486 1486 1487 1488 1489 1490 1491 1492 1493 1494 1495 1496 1497 1497 1498 1499 1499 1500 1500 1500 1501 1501 1502 1504 1505 1505 1506 1506
1469 1475 1482 1484 1486 1481 1464 1468 1463 1454 1455 1461 1467 1472 1475 1478 1480 1482 1483 1483 1483 1483 1484 1485 1485 1486 1487 1487 1488 1489 1489 1490 1490 1491 1492 1492 1492 1493 1493 1494 1494 1494 1494 1495 1496 1497 1497 1498 1498
1468 1470 1475 1478 1479 1471 1463 1466 1460 1454 1457 1462 1467 1472 1475 1478 1479 1481 1481 1482 1482 1482 1482 1482 1483 1483 1483 1484 1484 1485 1485 1485 1485 1486 1486 1486 1486 1486 1487 1487 1487 1487 1488 1488 1489 1489 1490 1491 1491
1467 1470 1468 1472 1465 1468 1469 1460 1464 1458 1461 1464 1468 1471 1474 1476 1478 1479 1480 1480 1480 1480 1480 1480 1481 1481 1481 1480 1480 1480 1480 1480 1480 1480 1480 1480 1480 1480 1480 1480 1480 1481 1481 1481 1482 1482 1483 1484 1484
1464 1465 1471 1475 1471 1467 1460 1458 1463 1462 1463 1464 1467 1470 1473 1475 1477 1478 1478 1478 1479 1479 1479 1479 1479 1478 1478 1478 1477 1477 1477 1476 1476 1476 1475 1475 1475 1474 1474 1474 1474 1474 1475 1475 1475 1476 1476 1477 1478
1466 1469 1469 1469 1467 1470 1463 1461 1446 1453 1457 1461 1464 1468 1471 1473 1475 1476 1477 1477 1477 1477 1477 1477 1476 1476 1475 1475 1475 1474 1473 1473 1472 1472 1471 1471 1470 1470 1469 1469 1469 1469 1469 1470 1470 1470 1471 1471 1472
1463 1463 1466 1471 1469 1464 1468 1466 1448 1451 1456 1460 1463 1467 1470 1472 1473 1474 1475 1475 1476 1475 1475 1475 1474 1474 1473 1473 1472 1471 1471 1470 1469 1469 1468 1467 1467 1466 1466 1465 1465 1465 1465 1465 1466 1466 1466 1467 1467